Regional Weather Roundup
Issued by NWS

Home | Current Version | Previous Version | Text Only | Print | Product List | Glossary On
Versions: 1 2 3 4 5 6 7 8 9 10 11 12 13 14 15 16 17 18 19 20 21 22 23 24 25 26 27 28 29 30 31 32 33 34 35 36 37 38 39 40 41 42 43 44 45 46 47 48 49 50
000
ASUS43 KTOP 170959
RWRKS

WEATHER ROUNDUP FOR KANSAS
NATIONAL WEATHER SERVICE GOODLAND KS
500 AM CDT THU AUG 17 2017

NOTE:  "FAIR" INDICATES FEW OR NO CLOUDS BELOW 12,000 FEET WITH NO
SIGNIFICANT WEATHER AND/OR OBSTRUCTIONS TO VISIBILITY.

KSZ001>006-013>018-027>032-041>047-171100-
NORTHWEST KANSAS

CITY           SKY/WX    TMP DP  RH WIND       PRES   REMARKS
GOODLAND       CLEAR     54  52  93 SW6       30.10R
HAYS           CLEAR     59  58  96 NW7       30.04R
HILL CITY      CLEAR     59  58  96 W8        30.04R
RUSSELL        CLEAR     61  59  93 W8        30.01R
$$

KSZ061>065-074>080-084>089-171100-
SOUTHWEST KANSAS

CITY           SKY/WX    TMP DP  RH WIND       PRES   REMARKS
DODGE CITY     CLEAR     58  56  93 NW6       30.07R
ELKHART          N/A     62  58  87 CALM        N/A
GARDEN CITY    CLEAR     58  56  93 CALM      30.08S
GREAT BEND     CLEAR     60  59  96 W7        30.03R
LIBERAL        CLEAR     65  59  81 NE3       30.09R
$$

KSZ066>073-081>083-090>101-171100-
SOUTHEAST KANSAS

CITY           SKY/WX    TMP DP  RH WIND       PRES   REMARKS
CHANUTE        FOG       69  68  96 SW6       29.91S VSB 1/4
COFFEYVILLE    CLOUDY    68  68 100 S3        29.91S
HUTCHINSON     CLEAR     62  60  93 NW6       29.98S
MEDICINE LODGE   N/A     64  61  90 NW5       30.01R
NEWTON         CLEAR     64  62  93 NW6       29.98S
PARSONS        CLOUDY    67  66  97 CALM      29.92S
WICHITA INTL   CLEAR     67  64  90 NW10      29.95F
WICHITA JABRA  CLEAR     65  64  97 NW9       29.95F
WINFIELD       CLOUDY    68  68 100 W5        29.96R
$$

KSZ007>012-019>026-033>040-048>060-102>105-171100-
NORTHEAST KANSAS

CITY           SKY/WX    TMP DP  RH WIND       PRES   REMARKS
CONCORDIA      CLEAR     61  61 100 W7        29.96R
EMPORIA        CLOUDY    66  64  93 NW7       29.93R
LAWRENCE       CLOUDY    66  65  96 W6        29.90R
MANHATTAN      CLEAR     63  63 100 SW5       29.94R
OLATHE IND     CLOUDY    67  66  97 NW7       29.90R
OLATHE EXE     CLOUDY    67  67 100 W3        29.90R
SALINA         CLEAR     66  62  87 CALM      29.98R
TOPEKA BILLARD CLOUDY    67  67 100 W6        29.91R
TOPEKA FORBES  CLOUDY    68  65  90 W8        29.92R
$$



USA.gov is the U.S. government's official web portal to all federal, state and local government web resources and services.